Showing default

PVSAT, 52894

Orbit data source: Space-Track

PVSAT, 52894 is a payload satellite owned by KARI (KR) in SSO that was launched on Tue, 21 Jun 2022 UTC via an NURI launch vehicle from the Naro Space Center, South Korea (NSC). Payload-class satellites include a variety of spacecraft equipped with specific instruments for various scientific and technological missions. These include communications satellites like Starlink; space stations such as the ISS; scientific satellites like the Hubble; Earth observation satellites from companies like Planet Labs, Umbra, and HawkEye 360; GPS; miniature CubeSats for education and research; and military/defense satellites.

Loading next visibility...
Identifier
52894, 2022-065A
Orbit
SSO
Country
Flag of KRKR / SKOR
Related business
Manufacturer
KARI
Mission
Operational Civil Technology
Bus & Motor
Unknown
Mass
180 kg wet, 162 kg dry
Launch date (UTC)
2022-06-21 (4 years ago)
Launch vehicle
NURI
Launch site
Naro Space Center, South Korea (NSC)
Object type
Payload
Rocket body
Debris
Shape & HBR
Box, 0.3 m
Radar Cross Section
0.720 m², Medium (>0.1 m² and < 1m²)

Expand to show TLE details & history
Last TLE update: 2 days ago

TLE from 2 days ago
0 PVSAT
1 52894U 22065A   26171.34958316  .00000190  00000-0  49915-4 0  9991
2 52894  98.2291 310.7221 0009546  16.2273 343.9231 14.59545349212810
Epoch: 2026-06-20T08:23Z
TLE epoch observation values (Epoch: 2026-06-20T08:23:23.985Z)
Latitude
0.00004°
Longitude
-83.69332°
Altitude
691.138 km
Speed
7.514 km/s
True Right ascension
20h 42m 53s
True Declination
0° 00' 00"
Sunlit
Object was in full shadow at epoch
Visualization orbit readout
Latitude
Unknown
Longitude
Unknown
Altitude
Unknown
Speed
Unknown
Apparent Right ascension
Unknown
Apparent Declination
Unknown
Sunlit
N/A
Visualization observer readout
Local Sidereal Time
21:37:21
Azimuth
Unknown
Elevation
Unknown
Doppler factor
Unknown
Orbital elements
Apogee altitude
698.474 km
Perigee altitude
684.977 km
Semi-major axis
7,069.863 km
Eccentricity
0.00095
Inclination
98.2291°
RAAN
310.7221°
Arg. of periapsis
16.2273°
True anomaly
343.89277°
Mean anomaly
343.9231°
Eccentric anomaly
343.90794°
Mean motion
3.65113 °/min
Orbital period
98.6 mins
BSTAR
0.000049915
Loading maneuver chart data...
Computing Atmospheric mass density...
Loading historical data...
Loading historical data...
Loading historical data...
Loading historical data...
Loading historical data...
Loading historical data...
Loading historical data...

Documentation

Showing up to 5 results
|